Washington State Current Weather Observations

 
 ASUS46 KSEW 150810
 RWRWA 
 
 WASHINGTON REGIONAL WEATHER ROUNDUP
 NATIONAL WEATHER SERVICE SEATTLE WA
 100 AM PDT WED AUG 15 2018
 
 NOTE:"FAIR" INDICATES FEW OR NO CLOUDS BELOW 12,000 FEET WITH NO 
 SIGNIFICANT WEATHER AND/OR OBSTRUCTIONS TO VISIBILITY.
 
 WAZ507-509-555>559-150900-
 SEATTLE, TACOMA, EVERETT, AND VICINITY
   
 CITY           SKY/WX    TMP DP  RH WIND       PRES   REMARKS
 EVERETT        CLOUDY    64  57  78 CALM      29.88S HAZE             
 BOEING FIELD   CLEAR     66  57  72 CALM      29.85S HAZE             
 RENTON         CLOUDY    68  61  78 CALM      29.85R HAZE             
 SEATAC AIRPORT MOCLDY    68  58  70 N5        29.87R HAZE             
 JBLM-MCCHORD   CLEAR     62  60  92 CALM      29.87R HAZE             
 PUYALLUP       CLOUDY    63  61  94 CALM      29.88R FOG              
 BREMERTON      CLEAR     62  52  69 CALM      29.87R HAZE             
 JBLM-FT LEWIS  CLEAR     64  58  81 SE3       29.86R HAZE             
 TACOMA NARROWS CLOUDY    66  55  67 CALM      29.87R                  
 
WAZ001-503-506-510-514-515-150900- NORTH INTERIOR CITY SKY/WX TMP DP RH WIND PRES REMARKS BELLINGHAM CLEAR 60 57 89 CALM 29.85S FRIDAY HARBOR CLEAR 58 53 84 CALM 29.86S EASTSOUND N/A 59 55 88 S3 29.85R FOG PORT ANGELES PTCLDY 57 52 83 CALM 29.87R HAZE EDIZ HOOK FAIR 55 52 92 CALM 29.86R PORT TOWNSEND CLOUDY 54 54 100 CALM 29.86R FOG NAS WHIDBEY MOCLDY 58 53 84 SE6 29.90R HAZE ARLINGTON PTCLDY 59 57 93 NW3 29.86S FOG BURLINGTON CLOUDY 57 57 100 CALM 29.86S FOG
WAZ020-022-039-040-504-511-512-150900- SOUTHWEST INTERIOR CITY SKY/WX TMP DP RH WIND PRES REMARKS SHELTON CLEAR 60 55 83 CALM 29.85R HAZE OLYMPIA CLEAR 62 57 83 CALM 29.86R HAZE CHEHALIS FAIR 63 61 94 CALM 29.87R KELSO CLEAR 67 61 81 NW3 29.88R VANCOUVER CLEAR 68 61 78 CALM 29.83R SCAPPOOSE, OR CLEAR 68 57 68 CALM 29.83R HAZE PORTLAND, OR MOCLDY 72 59 63 CALM 29.84R
WAZ021-516-517-150900- WASHINGTON COAST CITY SKY/WX TMP DP RH WIND PRES REMARKS FORKS CLOUDY 56 54 93 CALM 29.85S FOG HOQUIAM CLOUDY 61 61 100 SW8 29.88R FOG ASTORIA, OR CLOUDY 56 56 100 SW9 29.90S FOG
WAZ019-023-024-040-567>569-150900- CASCADE MOUNTAINS AND COLUMBIA GORGE CITY SKY/WX TMP DP RH WIND PRES REMARKS STAMPEDE PASS NOT AVBL TROUTDALE, OR CLEAR 67 56 67 E5 29.84R SMOKE HOOD RIVER, OR SUNNY 63 50 63 S5 29.87R HAZE THE DALLES, OR CLEAR 65 43 44 CALM 29.83R
WAZ026-027-041>044-520-521-150900- EAST SLOPES CITY SKY/WX TMP DP RH WIND PRES REMARKS OMAK CLEAR 69 53 56 N12 29.88R HAZE WENATCHEE CLOUDY 70 47 43 NW3 29.86R HAZE ELLENSBURG CLOUDY 59 46 62 E5 29.90R HAZE YAKIMA CLEAR 56 48 74 W7 29.87R HAZE SUNNYSIDE ARPT SUNNY 56 54 91 CALM 29.85R FOG YAKIMA TC N/A 64 37 36 CALM 29.87R
WAZ028-034-035-150900- COLUMBIA BASIN CITY SKY/WX TMP DP RH WIND PRES REMARKS EPHRATA CLOUDY 65 45 48 NE6 29.85S HAZE MOSES LAKE CLEAR 62 44 51 N3 29.86R HAZE PASCO CLEAR 59 54 83 N3 29.83R HAZE RICHLAND ARPT SUNNY 61 52 73 SW3 29.83R HERMISTON, OR CLEAR 59 47 64 SE3 29.83R
WAZ036>038-150900- NORTHEAST WASHINGTON CITY SKY/WX TMP DP RH WIND PRES REMARKS SPOKANE GEIGER MOCLDY 67 39 35 S3 29.92S HAZE SPOKANE FELTS PTCLDY 60 46 59 NE3 29.91S HAZE FAIRCHILD AFB PTCLDY 60 37 43 SW5 29.92S SMOKE COEURDALENE,ID CLEAR 59 45 59 CALM 29.93S DEER PARK CLEAR 55 40 56 NE5 29.92R HAZE
WAZ029>033-150900- SOUTHEAST WASHINGTON CITY SKY/WX TMP DP RH WIND PRES REMARKS PULLMAN CLEAR 55 36 48 CALM 29.95R HAZE LEWISTON, ID CLEAR 66 32 28 SE5 29.88R WALLA WALLA CLEAR 70 38 31 E8 29.85S HAZE PENDLETON, OR CLEAR 60 38 43 SE8 29.87R HAZE

Data from: http://www.wrh.noaa.gov/sew/get.php?pil=RWR&sid=WA&version=0&format=printer

Current Observations

Current Weather Conditions by Major Highway
Washington State Current Weather Observations   …  Oregon State Current Weather Observation



48 Hour Forecast


Seattle  …  Vancouver  …  Portland
————————————————————————————————————————
Bend  …  Spokane  …  Richland  …  Pendleton  …  Blue Mountains I-84  …  Yakima
————————————————————————————————————————
Goldendale, Washington Higher Elevations  …  Dallesport Airport - Goldendale  …  Bingen - White Salmon - Hood River  …  Index





Top of Page